This demonstration page uses our WeatherBlox Daily Observations layout. Learn more.

Left ArrowRight Arrow

Hourly Observations for August 29, 2022

Temp ( °F °C ) Dew Point ( °F °C ) Humidity (%) Winds ( mph kmh ) Pressure ( in mb ) Visibility ( mi km ) Precip ( " mm )
12:55 am 00:55 Clear 78 25.6 71 21.9 80 80 Calm 29.73 1007 10 16 0.00 0.00
1:55 am 01:55 Clear 77 25.1 70 21 78 78 NNW 5 7 29.75 1008 10 16 0.00 0.00
2:55 am 02:55 Partly Cloudy 77 25 65 18.2 66 66 N 6 9 29.77 1008 10 16 0.00 0.00
3:55 am 03:55 Mostly Cloudy 77 24.9 63 17.1 62 62 NE 8 13 29.77 1008 10 16 0.00 0.00
4:55 am 04:55 Mostly Cloudy 75 23.8 64 17.7 69 69 WNW 12 19 29.83 1010 10 16 0.00 0.00
5:12 am 05:12 Mostly Cloudy with Rain 75 24 64 18 69 69 NW 10 17 29.84 1011 10 16 0.00 0.00
5:48 am 05:48 Mostly Cloudy with Thunderstorms 72 22 63 17 73 73 E 6 9 29.82 1010 10 16 0.00 0.00
5:55 am 05:55 Mostly Cloudy with Light Showers 72 22 63 17.1 74 74 ENE 9 15 29.81 1010 10 16 0.02 0.51
6:31 am 06:31 Mostly Cloudy 72 22 61 16 69 69 VRB 7 11 29.81 1010 10 16 0.00 0.00
6:55 am 06:55 Mostly Cloudy 71 21.5 62 16.4 73 73 E 7 11 29.82 1010 10 16 0.00 0.00
7:55 am 07:55 Mostly Cloudy 70 21.2 60 15.3 69 69 Calm 29.89 1012 10 16 0.00 0.00
8:55 am 08:55 Mostly Cloudy 73 22.7 61 16 66 66 Calm 29.92 1013 10 16 0.00 0.00
9:55 am 09:55 Mostly Cloudy 75 23.9 62 16.7 64 64 WNW 8 13 29.95 1014 10 16 0.00 0.00
10:55 am 10:55 Mostly Cloudy 78 25.3 62 16.4 58 58 SSW 3 6 29.97 1015 10 16 0.00 0.00
11:55 am 11:55 Mostly Cloudy 77 25.2 61 16.1 57 57 NW 7 11 29.99 1016 10 16 0.00 0.00
12:55 pm 12:55 Mostly Cloudy 81 27 59 15 48 48 N 5 7 29.99 1016 10 16 0.00 0.00
1:55 pm 13:55 Sunny 83 28.3 59 15.2 45 45 NNE 6 9 29.96 1015 10 16 0.00 0.00
2:55 pm 14:55 Sunny 85 29.4 58 14.7 41 41 N 10 17 29.96 1014 10 16 0.00 0.00
3:55 pm 15:55 Sunny 86 29.9 58 14.4 39 39 N 9 15 29.94 1014 10 16 0.00 0.00
4:55 pm 16:55 Mostly Sunny 85 29.6 59 14.9 41 41 NE 5 7 29.96 1014 10 16 0.00 0.00
5:55 pm 17:55 Sunny 87 30.3 56 13.5 36 36 Calm 29.97 1015 10 16 0.00 0.00
6:55 pm 18:55 Sunny 84 28.9 56 13.5 39 39 S 3 6 29.97 1015 10 16 0.00 0.00
7:55 pm 19:55 Sunny 81 27.1 59 15.1 48 48 Calm 29.98 1015 10 16 0.00 0.00
8:55 pm 20:55 Clear 75 23.8 61 16.3 63 63 Calm 30.00 1016 10 16 0.00 0.00
9:55 pm 21:55 Clear 73 22.5 62 16.5 69 69 Calm 30.01 1016 10 16 0.00 0.00
10:55 pm 22:55 Clear 70 21.3 63 17.1 77 77 WNW 3 6 30.03 1017 10 16 0.00 0.00
11:55 pm 23:55 Clear 72 22.1 62 16.4 70 70 W 3 6 30.04 1017 10 16 0.00 0.00

Powered by AerisWeather